CW3330 Weather Reports


time (UTC)temp
C
wind
direction
speed
KPH
gust
KPH
rain 1hr
cm
rain 24hr
cm
rain mn
cm
humidity
%
barometer
mb
20260506151305 14 61 11.3 19.3 0.00 0.00 0.00 52 1009.5
20260506150307 14 63 11.3 27.4 0.00 0.00 0.00 52 1009.5
20260506145306 14 31 12.9 22.5 0.00 0.00 0.00 52 1009.5
20260506144306 14 61 11.3 25.7 0.00 0.00 0.00 50 1009.5
20260506143306 14 65 14.5 27.4 0.00 0.00 0.00 49 1009.5
20260506142744 14 24 11.3 20.9 0.00 0.00 0.00 50 1009.5
20260506141305 14 45 14.5 25.7 0.00 0.00 0.00 50 1009.5
20260506140306 14 63 11.3 27.4 0.00 0.00 0.00 49 1009.6
20260506135306 14 34 9.7 22.5 0.00 0.00 0.00 49 1009.5
20260506134307 14 46 11.3 30.6 0.00 0.00 0.00 49 1009.5
20260506133306 14 17 16.1 30.6 0.00 0.00 0.00 47 1009.4
20260506132307 15 32 12.9 27.4 0.00 0.00 0.00 46 1009.3
20260506131305 15 51 11.3 30.6 0.00 0.00 0.00 48 1009.3
20260506130306 15 80 14.5 25.7 0.00 0.00 0.00 48 1009.3
20260506125307 15 355 17.7 29.0 0.00 0.00 0.00 50 1009.2
20260506124305 15 91 16.1 30.6 0.00 0.00 0.00 51 1009.2
20260506123306 15 70 11.3 27.4 0.00 0.00 0.00 50 1009.0
20260506122306 15 63 16.1 30.6 0.00 0.00 0.00 52 1009.0
20260506121305 15 19 14.5 27.4 0.00 0.00 0.00 53 1008.9
20260506120306 15 91 19.3 30.6 0.00 0.00 0.00 51 1008.9
20260506115307 15 28 14.5 32.2 0.00 0.00 0.00 52 1009.0
20260506114306 15 57 19.3 30.6 0.00 0.00 0.00 52 1009.0
20260506112816 15 19 19.3 32.2 0.00 0.00 0.00 47 1009.1
20260506111317 14 20 14.5 25.7 0.00 0.00 0.00 54 1009.0
20260506110746 14 90 19.3 30.6 0.00 0.00 0.00 52 1009.1
20260506105306 14 84 16.1 29.0 0.00 0.00 0.00 53 1009.1
20260506104306 14 30 16.1 30.6 0.00 0.00 0.00 53 1009.1
20260506103308 13 34 12.9 33.8 0.00 0.00 0.00 54 1009.2
20260506102756 13 66 16.1 29.0 0.00 0.00 0.00 55 1009.2
20260506101737 13 47 16.1 32.2 0.00 0.00 0.00 52 1009.2
20260506100307 13 86 14.5 30.6 0.00 0.00 0.00 57 1009.3
20260506095306 13 26 19.3 37.0 0.00 0.00 0.00 56 1009.6
20260506094305 12 80 20.9 30.6 0.00 0.00 0.00 56 1009.4
20260506093320 12 327 14.5 35.4 0.00 0.00 0.00 57 1009.4
20260506092306 12 24 17.7 30.6 0.00 0.00 0.00 58 1009.4
20260506091306 12 46 16.1 32.2 0.00 0.00 0.00 58 1009.5
20260506090306 12 27 22.5 33.8 0.00 0.00 0.00 53 1009.4
20260506085306 12 27 11.3 27.4 0.00 0.00 0.00 60 1009.4
20260506084755 12 69 11.3 27.4 0.00 0.00 0.00 59 1009.3
20260506083306 12 34 12.9 27.4 0.00 0.00 0.00 60 1009.4
20260506082306 12 90 16.1 29.0 0.00 0.00 0.00 59 1009.3
20260506081305 12 46 11.3 27.4 0.00 0.00 0.00 60 1009.3
20260506080746 11 66 14.5 35.4 0.00 0.00 0.00 59 1009.3
20260506072306 11 68 12.9 30.6 0.00 0.00 0.00 57 1009.5
20260506071306 11 35 16.1 25.7 0.00 0.00 0.00 64 1009.4
20260506070306 10 62 14.5 29.0 0.00 0.00 0.00 60 1009.4
20260506062306 10 58 8.0 29.0 0.00 0.00 0.00 68 1009.3
20260506061306 10 40 12.9 29.0 0.00 0.00 0.00 68 1009.3
20260506060306 10 5 9.7 27.4 0.00 0.00 0.00 70 1009.3
20260506051306 7 28 6.4 14.5 0.00 0.00 0.00 80 1009.2
20260506050306 7 30 6.4 14.5 0.00 0.00 0.00 81 1009.2
20260506044305 6 5 6.4 11.3 0.00 0.00 0.00 82 1009.3
20260506043306 6 26 6.4 14.5 0.00 0.00 0.00 82 1009.3
20260506042306 6 18 4.8 8.0 0.00 0.00 0.00 83 1009.2
20260506041306 6 26 6.4 8.0 0.00 0.00 0.00 84 1009.3
20260506040306 5 18 4.8 8.0 0.00 0.00 0.00 86 1009.2
20260506035308 5 36 4.8 8.0 0.00 0.00 0.00 88 1009.3
20260506034321 5 46 3.2 4.8 0.00 0.00 0.00 88 1009.3
20260506033306 5 49 3.2 4.8 0.00 0.00 0.00 89 1009.2
20260506032318 4 49 0.0 3.2 0.00 0.00 0.00 89 1009.3
20260506031305 4 49 0.0 0.0 0.00 0.00 0.00 90 1009.3
20260506030750 4 49 0.0 0.0 0.00 0.00 0.00 90 1009.4
20260506025321 4 49 0.0 0.0 0.00 0.00 0.00 85 1009.4
20260506024305 4 49 0.0 0.0 0.00 0.00 0.00 90 1009.5
20260506023310 4 49 0.0 0.0 0.00 0.00 0.00 89 1009.5
20260506022306 5 49 0.0 0.0 0.00 0.00 0.00 89 1009.5
20260506021305 5 49 0.0 0.0 0.00 0.00 0.00 89 1009.5
20260506020307 5 49 0.0 0.0 0.00 0.00 0.00 90 1009.7
20260506015308 5 49 0.0 0.0 0.00 0.00 0.00 90 1009.7
20260506014307 5 49 0.0 1.6 0.00 0.00 0.00 90 1009.7
20260506013305 5 49 1.6 4.8 0.00 0.00 0.00 90 1009.8
20260506012308 5 50 0.0 0.0 0.00 0.00 0.00 90 1009.7
20260506011305 5 50 0.0 0.0 0.00 0.00 0.00 89 1009.8
20260506005752 5 50 0.0 0.0 0.00 0.00 0.00 89 1009.7
20260506004306 6 50 0.0 0.0 0.00 0.00 0.00 89 1009.8
20260506003307 6 50 0.0 0.0 0.00 0.00 0.00 89 1009.9
20260506002306 6 50 0.0 0.0 0.00 0.00 0.00 89 1009.9
20260506001306 6 50 0.0 0.0 0.00 0.00 0.00 90 1009.8
20260506000306 6 50 0.0 0.0 0.00 0.00 0.00 90 1009.9
20260505234309 6 50 0.0 0.0 0.00 0.00 0.00 89 1010.0
20260505233305 6 50 0.0 0.0 0.00 0.00 0.00 89 1010.1
20260505232306 6 50 0.0 0.0 0.00 0.00 0.00 90 1009.9
20260505231307 6 50 0.0 0.0 0.00 0.00 0.00 89 1010.0
20260505230306 6 50 0.0 0.0 0.00 0.00 0.00 89 1010.0
20260505225307 6 50 0.0 0.0 0.00 0.00 0.00 89 1010.0
20260505224310 6 50 0.0 0.0 0.00 0.00 0.00 88 1010.0
20260505223305 7 50 0.0 0.0 0.00 0.00 0.00 88 1010.1
20260505222307 7 50 0.0 0.0 0.00 0.00 0.00 87 1010.0
20260505221318 7 50 0.0 0.0 0.00 0.00 0.00 85 1010.1
20260505220328 8 50 0.0 0.0 0.00 0.00 0.00 85 1010.1
20260505215313 8 50 0.0 0.0 0.00 0.00 0.00 85 1010.2
20260505214313 8 50 1.6 4.8 0.00 0.00 0.00 85 1010.3
20260505213310 8 50 3.2 4.8 0.00 0.00 0.00 84 1010.3
20260505212311 8 50 0.0 0.0 0.00 0.00 0.00 83 1010.4
20260505211311 8 50 0.0 4.8 0.00 0.00 0.00 83 1010.4
20260505210311 8 50 0.0 3.2 0.00 0.00 0.00 82 1010.5
20260505205310 8 50 0.0 3.2 0.00 0.00 0.00 81 1010.5
20260505204810 8 50 1.6 4.8 0.00 0.00 0.00 81 1010.5
20260505203312 8 50 0.0 4.8 0.00 0.00 0.00 80 1010.5
20260505202310 9 50 3.2 6.4 0.00 0.00 0.00 80 1010.5
20260505201310 9 47 3.2 8.0 0.00 0.00 0.00 79 1010.5
20260505200311 9 55 4.8 11.3 0.00 0.00 0.00 78 1010.4
20260505195312 10 58 4.8 8.0 0.00 0.00 0.00 77 1010.4
20260505194747 10 71 3.2 8.0 0.00 0.00 0.00 76 1010.4
20260505193741 10 72 4.8 12.9 0.00 0.00 0.00 75 1010.3
20260505192757 10 63 3.2 11.3 0.00 0.00 0.00 74 1010.4
20260505191258 10 63 4.8 12.9 0.00 0.00 0.00 73 1010.2
20260505190259 10 82 3.2 16.1 0.00 0.00 0.00 73 1010.1
20260505185250 11 78 3.2 12.9 0.00 0.00 0.00 71 1010.1
20260505184245 11 52 4.8 11.3 0.00 0.00 0.00 70 1009.9
20260505183331 11 75 6.4 14.5 0.00 0.00 0.00 68 1010.0
20260505182332 11 81 6.4 16.1 0.00 0.00 0.00 66 1010.0
20260505181332 12 69 8.0 19.3 0.00 0.00 0.00 64 1010.1
20260505180333 12 51 8.0 19.3 0.00 0.00 0.00 62 1010.0
20260505175331 12 67 9.7 19.3 0.00 0.00 0.00 62 1010.1
20260505174331 12 28 11.3 20.9 0.00 0.00 0.00 60 1010.1
20260505173803 12 46 8.0 19.3 0.00 0.00 0.00 61 1010.0
20260505172331 12 44 12.9 20.9 0.00 0.00 0.00 60 1010.0
20260505171331 12 84 8.0 22.5 0.00 0.00 0.00 60 1010.1
20260505170333 13 13 12.9 20.9 0.00 0.00 0.00 59 1010.1
20260505165331 13 18 11.3 19.3 0.00 0.00 0.00 56 1010.2
20260505163331 13 59 12.9 20.9 0.00 0.00 0.00 65 1010.2
20260505162814 13 13 11.3 17.7 0.00 0.00 0.00 65 1010.3
20260505161331 14 25 9.7 22.5 0.00 0.00 0.00 63 1010.4
20260505160818 15 15 8.0 17.7 0.00 0.00 0.00 59 1010.3
20260505153333 13 67 6.4 16.1 0.00 0.00 0.00 66 1010.5
20260505152331 13 36 6.4 14.5 0.00 0.00 0.00 65 1010.4
20260505151331 13 57 8.0 14.5 0.00 0.00 0.00 60 1010.4